sat.trackr.live / text

‹ back to catalog

STARLINK-30268

NORAD 57531 · 2023-115L

PAYLOAD ACTIVE UNKNOWN

§ Identity

Operator
Country
US
Launch date
2023-08-08
Launch site
AFWTR
Launch vehicle
Mass (kg)
RCS (m²)

Purposes: comms

External: N2YO · Heavens-Above · Gunter

§ Orbital elements

Epoch: 2026-05-25T02:31:26.965344Z

Period
94.27 min
Inclination
43.0048°
Eccentricity
0.0001756
Mean motion
15.27590115 rev/d
Perigee alt
481.8 km
Apogee alt
484.2 km
Semi-major
6,861.2 km
B*
-6.2153e-5
RAAN
290.4325°
Arg perigee
269.6846°
Mean anomaly
90.3804°
Rev number
15,403

§ Raw data

STARLINK-302681 57531U 23115L   26145.10517321 -.00001973  00000+0 -62153-4 0  99932 57531  43.0048 290.4325 0001756 269.6846  90.3804 15.27590115154030

JSON: /api/v1/satellites/57531 · /tle

For live sub-satellite position, see the globe view (requires WebGL).

§ Visibility from observer

Set your observer location to see the next 7 days of passes ≥ 10°. The values pass through the URL so the page stays shareable.

No JS? Fill the form by hand. The geolocation button needs JavaScript.